SONATE-2

Last updated on Tue Aug 25 2026 00:03:14 GMT+0000 (Coordinated Universal Time)

1 59112U 24043Q 26236.33185495 .00045324 00000+0 48202-3 0 9994 2 59112 97.5589 31.2118 0004726 309.8563 50.2279 15.63896001138525
UTC large
Height (km)
Speed (km/s)
/
Latitude / Longitude
Inclination (degrees)
Orbital Period (minutes)
Azimuth
Elevation
Range (km)
Doppler Factor

Next 0 passes for location: London (51.5072 / 0.1276)

No passes found over London.
SONATE-2